This is the latest recevied weather packets stored in our database for station/object KG5APU. If no packets are shown the sender has not sent any weather packets the latest 10 day(s).
| Time | Temp. | Humidity | Pressure | Rain* | Wind** | Luminosity | Snow |
|---|---|---|---|---|---|---|---|
| 1788568100 | 33.89° C | 54% | 1012.4 hPa | 0 mm | - | 17 W/m² | - |
| 1788567495 | 34.44° C | 53% | 1012.2 hPa | 0 mm | - | 30 W/m² | - |
| 1788566890 | 35° C | 53% | 1012.3 hPa | 0 mm | - | 43 W/m² | - |
| 1788566286 | 35.56° C | 50% | 1011.9 hPa | 0 mm | - | 61 W/m² | - |
| 1788565682 | 36.11° C | 46% | 1012.2 hPa | 0 mm | - | 77 W/m² | - |
| 1788565079 | 36.67° C | 43% | 1011.9 hPa | 0 mm | - | 98 W/m² | - |
| 1788564477 | 36.67° C | 43% | 1012.2 hPa | 0 mm | - | 119 W/m² | - |
| 1788563884 | 36.67° C | 43% | 1012.2 hPa | 0 mm | - | 143 W/m² | - |
| 1788563270 | 36.67° C | 43% | 1011.9 hPa | 0 mm | - | 167 W/m² | - |
| 1788562670 | 37.22° C | 42% | 1012.2 hPa | 0 mm | - | 209 W/m² | - |
| 1788562068 | 36.67° C | 42% | 1012.2 hPa | 0 mm | - | 225 W/m² | - |
| 1788561463 | 37.22° C | 44% | 1012.2 hPa | 0 mm | - | 278 W/m² | - |
| 1788560860 | 37.22° C | 44% | 1012.3 hPa | 0 mm | - | 315 W/m² | - |
| 1788560264 | 36.67° C | 45% | 1012.3 hPa | 0 mm | - | 357 W/m² | - |
| 1788559656 | 37.22° C | 44% | 1012.3 hPa | 0 mm | - | 393 W/m² | - |
| 1788559051 | 37.22° C | 44% | 1012.3 hPa | 0 mm | - | 450 W/m² | - |
| 1788558447 | 37.22° C | 45% | 1012.4 hPa | 0 mm | - | 482 W/m² | - |
| 1788557847 | 37.22° C | 45% | 1012.6 hPa | 0 mm | - | 490 W/m² | - |
| 1788557244 | 37.22° C | 46% | 1012.4 hPa | 0 mm | - | 515 W/m² | - |
| 1788556639 | 37.22° C | 47% | 1012.7 hPa | 0 mm | - | 549 W/m² | - |
| 1788556035 | 36.67° C | 46% | 1012.8 hPa | 0 mm | - | 557 W/m² | - |
| 1788555431 | 36.67° C | 47% | 1012.8 hPa | 0 mm | - | 592 W/m² | - |
| 1788554843 | 37.22° C | 46% | 1013 hPa | 0 mm | - | 498 W/m² | - |
| 1788554227 | 36.67° C | 47% | 1013.3 hPa | 0 mm | - | 619 W/m² | - |
| 1788553625 | 36.67° C | 47% | 1013.3 hPa | 0 mm | - | 643 W/m² | - |
* Rain latest hour (hover to see other rain measurements)
** Current wind speed in m/s (hover to see current wind gust speed)